Погода в Долоцком

Россия / Вологодская область     58°57′59″N   35°58′28″E
темп.,
°C
ветер,
м/с
пор.,
м/с
влажн.,
%
обл.,
%
осадки,
мм/ч
давл.,
гПа
погр.,
м
20 сентября, пн
пн2000:00+4всв51279100 0.0 1027566
03:00+2всв41282100 0.0 1027563
06:00+1всв51282100 0.0 1027570
09:00+3всв51374100 0.0 1027690
12:00+6всв61061100 0.0 1027994
15:00+7всв51058100 0.0 10261128
18:00+6всв51163100 0.0 10261056
21:00+4всв41272100 0.0 1026704
21 сентября, вт
вт2100:00+3всв41278100 0.0 1025577
03:00+3всв41180100 0.0 1024510
06:00+3всв41180100 0.0 1023516
09:00+4всв41174100 0.0 1023615
12:00+7в5861100 0.0 1022888
15:00+8в41063100 0.0 10211111
18:00+5всв41091100 0.2 1021909
21:00+5в3981100 0.3 1021879
22 сентября, ср
ср2200:00+6всв3980100 0.0 1020685
03:00+5св3881100 0.0 1020525
06:00+5св4983100 0.2 1019543
09:00+5св41081100 0.3 1019561
12:00+6св41074100 0.0 1020567
15:00+8всв41068100 0.0 1019817
18:00+7всв41180100 0.1 1018815
21:00+6всв41083100 0.2 1018762
23 сентября, чт
чт2300:00+6всв3892100 0.3 1017746
03:00+6всв3896100 0.9 1015440
06:00+6в3797100 0.3 1014439
09:00+6в2698100 0.3 1013334
12:00+7юв2495100 0.1 1012371
15:00+7ююв2597100 0.3 1011349
18:00+7ююв2697100 0.1 1009318
21:00+5юв279999 0.1 1008225
24 сентября, пт
пт2400:00+7ююв3997100 0.4 1005537
03:00+6ююв4119598 0.8 1004703
06:00+6ююв4109297 0.1 1002717
09:00+6ююв51188100 0.3 10011072
12:00+8ююв6118152 0.2 9991090
15:00+7ююв61282100 0.3 9981019
18:00+7ююв61184100 0.1 9981205
21:00+7ююв51191100 1.0 9981196